Corpus Christi, TX

7:28 AM CDT on May 27, 2018 (GMT -0500)
Corpus Christi International

Weather History for KCRP - February, 2014

Change the Weather History Date:

Tuesday, February 11, 2014

  Actual Average Record
Temperature  
Mean Temperature 41 °F 60 °F  
Max Temperature 44 °F 70 °F 87 °F (2017)
Min Temperature 38 °F 50 °F 24 °F (1899)
Degree Days  
Heating Degree Days 24 7  
Month to date heating degree days 164 81  
Since 1 July heating degree days 930 708  
Cooling Degree Days 0 2  
Month to date cooling degree days 7 15  
Year to date cooling degree days 9 45  
Moisture  
Dew Point 37 °F    
Average Humidity 86    
Maximum Humidity 93    
Minimum Humidity 79    
Precipitation  
Precipitation 0.02 in 0.08 in 1.45 in (2010)
Month to date precipitation 0.11 0.66  
Year to date precipitation 0.78 2.20  
Snow  
Snow 0.00 in - - ()
Month to date snowfall 0.0  
Since 1 July snowfall T  
Snow Depth 0.00 in    
Sea Level Pressure  
Sea Level Pressure 30.15 in    
Wind  
Wind Speed 17 mph (North)    
Max Wind Speed 24 mph    
Max Gust Speed 30 mph    
Visibility 5 miles    
Events Rain    
T = Trace of Precipitation, MM = Missing Value Source: NWS Daily Summary

Daily Weather History Graph

Daily Weather History Graph

Search for Another Location

Airport or City:

Astronomy

Feb. 11, 2014 Rise Set
Actual Time 7:10 AM CST 6:18 PM CST
Civil Twilight 6:46 AM CST 6:42 PM CST
Nautical Twilight 6:18 AM CST 7:10 PM CST
Astronomical Twilight 5:51 AM CST 7:37 PM CST
Moon 3:46 PM CST (2/11) 4:41 AM CST (2/11)
Length of Visible Light 11h 56m
Length of Day
11h 08m
Waxing Gibbous, 91% of the Moon is Illuminated
Feb 11
Waxing Gibbous
Feb 14
Full
Feb 22
Last Quarter
Mar 1
New
Mar 8
First Quarter

Hourly Weather History & Observations

Time (CST) Temp. Windchill Dew Point Humidity Pressure Visibility Wind Dir Wind Speed Gust Speed Precip Events Conditions
12:51 AM 44.1 °F 35.9 °F 41.0 °F 89% 30.08 in 3.0 mi NNE 19.6 mph - 0.00 in   Light Drizzle
1:47 AM 44.6 °F 37.2 °F 41.0 °F 87% 30.08 in 4.0 mi NNE 17.3 mph - 0.00 in   Light Drizzle
1:51 AM 44.1 °F 35.9 °F 41.0 °F 89% 30.08 in 4.0 mi NNE 19.6 mph - 0.00 in   Light Drizzle
2:51 AM 43.0 °F 34.8 °F 39.9 °F 89% 30.08 in 4.0 mi North 18.4 mph - 0.00 in   Light Drizzle
3:51 AM 42.1 °F 33.3 °F 39.0 °F 89% 30.08 in 4.0 mi North 19.6 mph - 0.00 in   Light Drizzle
4:51 AM 42.1 °F 33.3 °F 39.0 °F 89% 30.08 in 4.0 mi NNE 19.6 mph - 0.00 in   Light Drizzle
5:43 AM 41.0 °F 31.9 °F 39.2 °F 93% 30.09 in 2.5 mi NNE 19.6 mph 25.3 mph 0.00 in   Light Drizzle
5:51 AM 41.0 °F 32.2 °F 39.0 °F 93% 30.09 in 2.5 mi NNE 18.4 mph - 0.00 in   Light Drizzle
6:18 AM 41.0 °F 32.5 °F 37.4 °F 87% 30.11 in 4.0 mi NNE 17.3 mph - 0.00 in   Light Drizzle
6:51 AM 41.0 °F 32.5 °F 39.0 °F 93% 30.13 in 3.0 mi North 17.3 mph - 0.00 in   Light Drizzle
7:00 AM 41.0 °F 33.1 °F 39.2 °F 93% 30.14 in 3.0 mi North 15.0 mph - 0.00 in   Light Drizzle
7:23 AM 41.0 °F 32.8 °F 37.4 °F 87% 30.14 in 2.0 mi North 16.1 mph - 0.00 in   Light Drizzle
7:48 AM 41.0 °F 34.3 °F 37.4 °F 87% 30.15 in 1.0 mi North 11.5 mph - 0.00 in   Light Drizzle
7:51 AM 41.0 °F 33.5 °F 37.9 °F 89% 30.15 in 1.0 mi North 13.8 mph - 0.00 in   Light Drizzle
8:51 AM 41.0 °F 32.2 °F 37.0 °F 86% 30.18 in 1.5 mi North 18.4 mph - 0.01 in   Light Drizzle
9:24 AM 39.2 °F 29.8 °F 37.4 °F 93% 30.19 in 2.0 mi North 18.4 mph - 0.00 in   Light Drizzle
9:51 AM 39.9 °F 31.4 °F 37.0 °F 89% 30.21 in 2.5 mi North 16.1 mph - 0.00 in   Light Drizzle
10:22 AM 41.0 °F 34.3 °F 37.4 °F 87% 30.20 in 3.0 mi North 11.5 mph 23.0 mph 0.01 in   Light Drizzle
10:51 AM 41.0 °F 32.5 °F 37.0 °F 86% 30.20 in 5.0 mi North 17.3 mph - 0.01 in   Light Drizzle
11:51 AM 39.9 °F 32.1 °F 37.0 °F 89% 30.20 in 5.0 mi North 13.8 mph - 0.00 in   Light Drizzle
12:51 PM 39.9 °F 31.4 °F 36.0 °F 86% 30.19 in 3.0 mi NNW 16.1 mph - 0.00 in   Light Drizzle
1:26 PM 39.2 °F 30.5 °F 37.4 °F 93% 30.17 in 1.8 mi NNW 16.1 mph - 0.00 in   Light Drizzle
1:51 PM 41.0 °F 32.8 °F 37.0 °F 86% 30.16 in 2.0 mi NNW 16.1 mph - 0.00 in   Light Drizzle
2:51 PM 39.9 °F 30.0 °F 36.0 °F 86% 30.15 in 2.0 mi NNW 21.9 mph 26.5 mph 0.00 in   Light Drizzle
3:28 PM 39.2 °F 30.8 °F 35.6 °F 87% 30.14 in 3.0 mi North 15.0 mph - 0.00 in   Light Drizzle
3:51 PM 39.9 °F 31.4 °F 36.0 °F 86% 30.13 in 3.0 mi North 16.1 mph - 0.00 in   Light Drizzle
4:20 PM 39.2 °F 31.6 °F 35.6 °F 87% 30.15 in 10.0 mi NNW 12.7 mph - 0.00 in   Overcast
4:37 PM 39.2 °F 30.8 °F 35.6 °F 87% 30.15 in 10.0 mi North 15.0 mph - 0.00 in   Overcast
4:51 PM 39.9 °F 31.1 °F 35.1 °F 83% 30.14 in 10.0 mi NNW 17.3 mph 21.9 mph 0.00 in   Overcast
5:51 PM 39.9 °F 30.8 °F 35.1 °F 83% 30.15 in 8.0 mi North 18.4 mph - N/A   Overcast
6:51 PM 39.9 °F 31.4 °F 35.1 °F 83% 30.17 in 9.0 mi North 16.1 mph - N/A   Overcast
7:51 PM 39.0 °F 29.3 °F 34.0 °F 82% 30.20 in 9.0 mi North 19.6 mph - 0.00 in   Overcast
8:51 PM 39.0 °F 31.0 °F 34.0 °F 82% 30.22 in 9.0 mi North 13.8 mph - 0.00 in   Light Drizzle
9:39 PM 37.4 °F 28.2 °F 33.8 °F 87% 30.22 in 10.0 mi North 16.1 mph 25.3 mph 0.00 in   Overcast
9:51 PM 37.9 °F 28.9 °F 33.1 °F 83% 30.21 in 10.0 mi North 16.1 mph - 0.00 in   Overcast
9:58 PM 37.4 °F 28.5 °F 33.8 °F 87% 30.21 in 10.0 mi North 15.0 mph - N/A   Overcast
10:51 PM 37.9 °F 30.5 °F 33.1 °F 83% 30.20 in 10.0 mi North 11.5 mph - N/A   Overcast
11:51 PM 37.9 °F 29.2 °F 33.1 °F 83% 30.20 in 10.0 mi North 15.0 mph - N/A   Overcast